Location: Young's Pond
(41.2695°N, 72.7766°W)
Time: 04:01:58
(UTC-04:00)

CZ-4B R/B - Visible Passes

Search period start: 01 May 2016 00:00
Search period end: 11 May 2016 00:00
Orbit: 409 x 505 km, 97.5° (Epoch: 30 April)

Date Brightness Start Highest point End Pass type
(mag) Time Alt. Az. Time Alt. Az. Time Alt. Az.
03 May 4.8 00:07:12 12° N 00:07:12 12° N 00:07:27 10° N visible
05 May 4.8 00:34:28 12° NNW 00:34:28 12° NNW 00:34:42 10° NNW visible
06 May 4.5 00:01:12 14° N 00:01:12 14° N 00:01:45 10° N visible
06 May 4.5 23:27:55 10° NNE 23:27:55 10° NNE 23:28:01 10° NNE visible
08 May 4.5 00:28:25 15° NNW 00:28:25 15° NNW 00:29:02 10° NNW visible
08 May 4.3 23:55:08 15° NNE 23:55:08 15° NNE 23:55:57 10° N visible
09 May 4.5 23:21:50 10° NE 23:21:50 10° NE 23:21:59 10° NE visible
10 May 4.6 00:55:37 12° NW 00:55:37 12° NW 00:55:54 10° NNW visible
